カタログに戻る

COSMOS 878

運用中通信LEO
NORAD 9595·PAYLOAD·🇷🇺 Russia

打ち上げ Dec 7, 1976 から Plesetsk Cosmodrome

Loading…

次のパス (今後24時間)

TLE

最新Source: Space-Track

元期: Sep 14, 2026, 11:31 UTC

1 09595U 76118H   26257.48028162 -.00000021  00000-0 -36796-4 0  9994
2 09595  74.0272 259.0794 0006886   8.5224 146.6783 12.48947976269129

AllMySatでCOSMOS 878をリアルタイム追跡

Download on the App Store